| time (UTC) | temp C | wind direction | speed KPH | gust KPH | rain 1hr cm | rain 24hr cm | rain mn cm | humidity % | barometer mb |
| 20260507185556 | 18 | 267 | 1.6 | 9.7 | 0.00 | 0.00 | 0.00 | 47 | 1036.6 |
| 20260507185057 | 19 | 194 | 1.6 | 9.7 | 0.00 | 0.00 | 0.00 | 43 | 1036.8 |
| 20260507184556 | 19 | 246 | 3.2 | 11.3 | 0.00 | 0.00 | 0.00 | 46 | 1036.8 |
| 20260507184055 | 19 | 263 | 6.4 | 12.9 | 0.00 | 0.00 | 0.00 | 46 | 1036.8 |
| 20260507183555 | 19 | 42 | 4.8 | 12.9 | 0.00 | 0.00 | 0.00 | 43 | 1036.9 |
| 20260507183055 | 19 | 232 | 1.6 | 12.9 | 0.00 | 0.00 | 0.00 | 45 | 1036.9 |
| 20260507182553 | 19 | 245 | 1.6 | 8.0 | 0.00 | 0.00 | 0.00 | 45 | 1036.9 |
| 20260507182314 | 18 | 319 | 3.2 | 9.7 | 0.00 | 0.00 | 0.00 | 48 | 1037.1 |
| 20260507181553 | 18 | 133 | 3.2 | 9.7 | 0.00 | 0.00 | 0.00 | 49 | 1037.1 |
| 20260507181052 | 18 | 254 | 3.2 | 9.7 | 0.00 | 0.00 | 0.00 | 47 | 1037.1 |
| 20260507180554 | 18 | 251 | 1.6 | 9.7 | 0.00 | 0.00 | 0.00 | 43 | 1037.5 |
| 20260507180048 | 18 | 238 | 1.6 | 9.7 | 0.00 | 0.00 | 0.00 | 52 | 1037.5 |
| 20260507175541 | 18 | 30 | 3.2 | 9.7 | 0.00 | 0.00 | 0.00 | 44 | 1037.5 |
| 20260507175028 | 18 | 48 | 3.2 | 16.1 | 0.00 | 0.00 | 0.00 | 47 | 1037.6 |
| 20260507174519 | 18 | 265 | 4.8 | 22.5 | 0.00 | 0.00 | 0.00 | 47 | 1037.6 |
| 20260507174244 | 18 | 230 | 4.8 | 22.5 | 0.00 | 0.00 | 0.00 | 51 | 1037.6 |
| 20260507173517 | 18 | 224 | 4.8 | 14.5 | 0.00 | 0.00 | 0.00 | 48 | 1038.0 |
| 20260507173242 | 18 | 39 | 3.2 | 9.7 | 0.00 | 0.00 | 0.00 | 48 | 1038.0 |
| 20260507172516 | 18 | 84 | 3.2 | 8.0 | 0.00 | 0.00 | 0.00 | 48 | 1038.0 |
| 20260507172238 | 18 | 290 | 3.2 | 8.0 | 0.00 | 0.00 | 0.00 | 49 | 1038.3 |
| 20260507171740 | 17 | 224 | 3.2 | 9.7 | 0.00 | 0.00 | 0.00 | 52 | 1038.3 |
| 20260507171017 | 17 | 86 | 3.2 | 9.7 | 0.00 | 0.00 | 0.00 | 48 | 1038.3 |
| 20260507170517 | 17 | 246 | 3.2 | 9.7 | 0.00 | 0.00 | 0.00 | 52 | 1038.6 |
| 20260507170010 | 17 | 294 | 4.8 | 12.9 | 0.00 | 0.00 | 0.00 | 49 | 1038.6 |
| 20260507165458 | 17 | 81 | 3.2 | 12.9 | 0.00 | 0.00 | 0.00 | 51 | 1038.6 |
| 20260507164947 | 17 | 138 | 3.2 | 9.7 | 0.00 | 0.00 | 0.00 | 55 | 1038.8 |
| 20260507164434 | 17 | 225 | 4.8 | 12.9 | 0.00 | 0.00 | 0.00 | 51 | 1038.8 |
| 20260507163922 | 17 | 251 | 3.2 | 12.9 | 0.00 | 0.00 | 0.00 | 52 | 1038.8 |
| 20260507163416 | 17 | 239 | 3.2 | 9.7 | 0.00 | 0.00 | 0.00 | 50 | 1038.8 |
| 20260507162916 | 17 | 34 | 1.6 | 8.0 | 0.00 | 0.00 | 0.00 | 57 | 1038.8 |
| 20260507162635 | 16 | 75 | 3.2 | 8.0 | 0.00 | 0.00 | 0.00 | 50 | 1038.8 |
| 20260507162135 | 16 | 333 | 3.2 | 11.3 | 0.00 | 0.00 | 0.00 | 51 | 1039.1 |
| 20260507161416 | 16 | 270 | 3.2 | 11.3 | 0.00 | 0.00 | 0.00 | 50 | 1039.1 |
| 20260507160918 | 16 | 106 | 1.6 | 11.3 | 0.00 | 0.00 | 0.00 | 53 | 1039.1 |
| 20260507160417 | 16 | 129 | 3.2 | 9.7 | 0.00 | 0.00 | 0.00 | 51 | 1039.4 |
| 20260507155917 | 16 | 336 | 3.2 | 11.3 | 0.00 | 0.00 | 0.00 | 54 | 1039.4 |
| 20260507155415 | 16 | 70 | 3.2 | 11.3 | 0.00 | 0.00 | 0.00 | 52 | 1039.4 |
| 20260507154914 | 16 | 116 | 3.2 | 9.7 | 0.00 | 0.00 | 0.00 | 54 | 1039.7 |
| 20260507154409 | 15 | 202 | 3.2 | 11.3 | 0.00 | 0.00 | 0.00 | 53 | 1039.7 |
| 20260507153858 | 16 | 212 | 3.2 | 11.3 | 0.00 | 0.00 | 0.00 | 56 | 1039.7 |
| 20260507153356 | 16 | 202 | 3.2 | 11.3 | 0.00 | 0.00 | 0.00 | 55 | 1039.7 |
| 20260507152851 | 15 | 347 | 3.2 | 11.3 | 0.00 | 0.00 | 0.00 | 55 | 1039.7 |
| 20260507152344 | 16 | 126 | 3.2 | 9.7 | 0.00 | 0.00 | 0.00 | 54 | 1039.7 |
| 20260507151838 | 16 | 36 | 3.2 | 8.0 | 0.00 | 0.00 | 0.00 | 55 | 1039.8 |
| 20260507151332 | 16 | 286 | 1.6 | 8.0 | 0.00 | 0.00 | 0.00 | 58 | 1039.8 |
| 20260507150827 | 16 | 223 | 1.6 | 9.7 | 0.00 | 0.00 | 0.00 | 55 | 1039.8 |
| 20260507150539 | 16 | 180 | 1.6 | 9.7 | 0.00 | 0.00 | 0.00 | 55 | 1040.3 |
| 20260507145815 | 15 | 215 | 1.6 | 8.0 | 0.00 | 0.00 | 0.00 | 52 | 1040.3 |
| 20260507145308 | 15 | 207 | 3.2 | 11.3 | 0.00 | 0.00 | 0.00 | 52 | 1040.3 |
| 20260507145027 | 15 | 31 | 1.6 | 11.3 | 0.00 | 0.00 | 0.00 | 55 | 1040.7 |
| 20260507144344 | 15 | 159 | 1.6 | 6.4 | 0.00 | 0.00 | 0.00 | 55 | 1040.7 |
| 20260507143244 | 14 | 55 | 3.2 | 12.9 | 0.00 | 0.00 | 0.00 | 60 | 1040.7 |
| 20260507142734 | 14 | 265 | 3.2 | 12.9 | 0.00 | 0.00 | 0.00 | 59 | 1040.7 |
| 20260507142232 | 13 | 227 | 3.2 | 8.0 | 0.00 | 0.03 | 0.00 | 57 | 1040.7 |
| 20260507141726 | 13 | 229 | 3.2 | 12.9 | 0.00 | 0.03 | 0.00 | 58 | 1040.8 |
| 20260507141216 | 13 | 33 | 1.6 | 12.9 | 0.00 | 0.03 | 0.00 | 57 | 1040.8 |
| 20260507140714 | 13 | 294 | 1.6 | 4.8 | 0.00 | 0.03 | 0.00 | 59 | 1040.8 |
| 20260507140209 | 13 | 64 | 1.6 | 8.0 | 0.00 | 0.03 | 0.00 | 59 | 1041.0 |
| 20260507135703 | 13 | 63 | 3.2 | 8.0 | 0.00 | 0.03 | 0.00 | 56 | 1041.0 |
| 20260507135153 | 13 | 242 | 3.2 | 9.7 | 0.00 | 0.05 | 0.00 | 59 | 1041.0 |
| 20260507135132 | 13 | 355 | 1.6 | 9.7 | 0.00 | 0.05 | 0.00 | 57 | 1041.2 |
| 20260507134406 | 13 | 140 | 1.6 | 11.3 | 0.00 | 0.05 | 0.00 | 58 | 1041.2 |
| 20260507133639 | 13 | 155 | 1.6 | 11.3 | 0.00 | 0.05 | 0.00 | 58 | 1041.2 |
| 20260507133133 | 13 | 242 | 1.6 | 6.4 | 0.00 | 0.05 | 0.00 | 59 | 1041.2 |
| 20260507132627 | 13 | 336 | 0.0 | 3.2 | 0.00 | 0.05 | 0.00 | 58 | 1041.2 |
| 20260507132116 | 13 | 131 | 1.6 | 8.0 | 0.00 | 0.05 | 0.00 | 59 | 1041.3 |
| 20260507131840 | 12 | 108 | 1.6 | 8.0 | 0.00 | 0.05 | 0.00 | 60 | 1041.3 |
| 20260507131108 | 12 | 295 | 1.6 | 8.0 | 0.00 | 0.08 | 0.00 | 63 | 1041.3 |
| 20260507130832 | 11 | 5 | 1.6 | 8.0 | 0.00 | 0.08 | 0.00 | 63 | 1041.3 |
| 20260507130056 | 11 | 231 | 0.0 | 4.8 | 0.00 | 0.08 | 0.00 | 62 | 1041.3 |
| 20260507125816 | 11 | 326 | 1.6 | 4.8 | 0.00 | 0.08 | 0.00 | 64 | 1041.3 |
| 20260507125044 | 11 | 252 | 1.6 | 4.8 | 0.00 | 0.10 | 0.00 | 66 | 1041.3 |
| 20260507124538 | 11 | 34 | 0.0 | 3.2 | 0.00 | 0.13 | 0.00 | 67 | 1041.3 |
| 20260507124028 | 11 | 271 | 0.0 | 1.6 | 0.00 | 0.15 | 0.00 | 67 | 1041.3 |
| 20260507123526 | 11 | 279 | 0.0 | 4.8 | 0.00 | 0.15 | 0.00 | 66 | 1041.3 |
| 20260507123016 | 11 | 261 | 1.6 | 4.8 | 0.00 | 0.18 | 0.00 | 64 | 1041.3 |
| 20260507122514 | 11 | 246 | 1.6 | 3.2 | 0.00 | 0.18 | 0.00 | 64 | 1041.3 |
| 20260507122008 | 11 | 290 | 0.0 | 4.8 | 0.00 | 0.20 | 0.00 | 65 | 1041.3 |
| 20260507121502 | 11 | 254 | 0.0 | 4.8 | 0.00 | 0.23 | 0.00 | 67 | 1041.3 |
| 20260507120956 | 11 | 271 | 0.0 | 3.2 | 0.00 | 0.23 | 0.00 | 65 | 1041.3 |
| 20260507120448 | 11 | 22 | 0.0 | 3.2 | 0.00 | 0.23 | 0.00 | 67 | 1041.2 |
| 20260507115944 | 11 | 70 | 0.0 | 3.2 | 0.00 | 0.23 | 0.00 | 65 | 1041.2 |
| 20260507115441 | 10 | 96 | 0.0 | 4.8 | 0.00 | 0.23 | 0.00 | 65 | 1041.2 |
| 20260507114932 | 10 | 87 | 0.0 | 4.8 | 0.00 | 0.25 | 0.00 | 66 | 1041.1 |
| 20260507114426 | 10 | 178 | 0.0 | 4.8 | 0.00 | 0.25 | 0.00 | 67 | 1041.1 |
| 20260507113915 | 10 | 26 | 0.0 | 6.4 | 0.00 | 0.28 | 0.00 | 69 | 1041.1 |
| 20260507113415 | 10 | 42 | 0.0 | 6.4 | 0.00 | 0.30 | 0.00 | 71 | 1040.8 |
| 20260507113123 | 10 | 121 | 0.0 | 3.2 | 0.00 | 0.30 | 0.00 | 67 | 1040.8 |
| 20260507112402 | 10 | 130 | 0.0 | 3.2 | 0.00 | 0.33 | 0.00 | 66 | 1040.8 |
| 20260507112342 | 10 | 29 | 0.0 | 3.2 | 0.00 | 0.33 | 0.00 | 72 | 1040.9 |
| 20260507111351 | 10 | 92 | 0.0 | 3.2 | 0.00 | 0.33 | 0.00 | 72 | 1040.9 |
| 20260507110844 | 10 | 117 | 0.0 | 3.2 | 0.00 | 0.36 | 0.00 | 67 | 1040.9 |
| 20260507110339 | 10 | 227 | 0.0 | 4.8 | 0.00 | 0.36 | 0.00 | 72 | 1040.8 |
| 20260507105832 | 10 | 300 | 0.0 | 4.8 | 0.00 | 0.36 | 0.00 | 69 | 1040.8 |
| 20260507105321 | 10 | 300 | 0.0 | 3.2 | 0.00 | 0.38 | 0.00 | 73 | 1040.8 |
| 20260507104820 | 10 | 108 | 0.0 | 4.8 | 0.00 | 0.38 | 0.00 | 73 | 1040.7 |
| 20260507104314 | 10 | 97 | 0.0 | 4.8 | 0.00 | 0.38 | 0.00 | 72 | 1040.7 |
| 20260507103808 | 10 | 245 | 0.0 | 0.0 | 0.00 | 0.38 | 0.00 | 74 | 1040.7 |
| 20260507103302 | 10 | 165 | 0.0 | 4.8 | 0.00 | 0.38 | 0.00 | 78 | 1040.3 |
| 20260507103021 | 10 | 165 | 0.0 | 4.8 | 0.00 | 0.38 | 0.00 | 76 | 1040.3 |
| 20260507102249 | 10 | 268 | 0.0 | 0.0 | 0.00 | 0.38 | 0.00 | 82 | 1040.3 |
| 20260507101739 | 10 | 268 | 0.0 | 0.0 | 0.00 | 0.38 | 0.00 | 81 | 1040.3 |
| 20260507101237 | 10 | 268 | 0.0 | 0.0 | 0.00 | 0.38 | 0.00 | 82 | 1040.3 |
| 20260507100959 | 10 | 267 | 0.0 | 0.0 | 0.00 | 0.38 | 0.00 | 83 | 1040.3 |
| 20260507100226 | 10 | 268 | 0.0 | 1.6 | 0.00 | 0.38 | 0.00 | 82 | 1040.2 |
| 20260507095720 | 10 | 268 | 0.0 | 1.6 | 0.00 | 0.38 | 0.00 | 84 | 1040.2 |
| 20260507095214 | 10 | 267 | 0.0 | 1.6 | 0.00 | 0.38 | 0.00 | 82 | 1040.2 |
| 20260507094708 | 10 | 61 | 0.0 | 0.0 | 0.00 | 0.38 | 0.00 | 84 | 1040.0 |
| 20260507094158 | 10 | 61 | 0.0 | 0.0 | 0.00 | 0.38 | 0.00 | 83 | 1040.0 |
| 20260507093924 | 10 | 61 | 0.0 | 0.0 | 0.00 | 0.38 | 0.00 | 81 | 1040.0 |
| 20260507093422 | 10 | 61 | 0.0 | 0.0 | 0.00 | 0.38 | 0.00 | 80 | 1039.8 |
| 20260507092914 | 11 | 61 | 0.0 | 0.0 | 0.00 | 0.38 | 0.00 | 79 | 1039.8 |
| 20260507092138 | 11 | 61 | 0.0 | 0.0 | 0.00 | 0.38 | 0.00 | 78 | 1039.8 |
| 20260507091628 | 11 | 61 | 0.0 | 0.0 | 0.00 | 0.38 | 0.00 | 77 | 1039.9 |
| 20260507091124 | 11 | 61 | 0.0 | 0.0 | 0.00 | 0.38 | 0.00 | 78 | 1039.9 |
| 20260507090618 | 11 | 61 | 0.0 | 3.2 | 0.00 | 0.38 | 0.00 | 79 | 1040.1 |
| 20260507090108 | 11 | 61 | 0.0 | 4.8 | 0.00 | 0.38 | 0.00 | 76 | 1040.1 |
| 20260507085602 | 11 | 346 | 1.6 | 4.8 | 0.00 | 0.38 | 0.00 | 77 | 1040.1 |
| 20260507085059 | 11 | 157 | 1.6 | 8.0 | 0.00 | 0.38 | 0.00 | 77 | 1039.9 |
| 20260507084824 | 11 | 70 | 0.0 | 8.0 | 0.00 | 0.38 | 0.00 | 81 | 1039.9 |
| 20260507084059 | 11 | 283 | 0.0 | 0.0 | 0.00 | 0.38 | 0.00 | 83 | 1039.9 |
| 20260507083600 | 11 | 283 | 0.0 | 0.0 | 0.00 | 0.38 | 0.00 | 83 | 1039.9 |
| 20260507083059 | 11 | 283 | 0.0 | 0.0 | 0.00 | 0.38 | 0.00 | 83 | 1039.9 |
| 20260507082559 | 11 | 282 | 0.0 | 0.0 | 0.00 | 0.38 | 0.00 | 83 | 1039.9 |
| 20260507082100 | 11 | 308 | 0.0 | 1.6 | 0.00 | 0.38 | 0.00 | 81 | 1039.7 |
| 20260507082046 | 11 | 309 | 0.0 | 1.6 | 0.00 | 0.38 | 0.00 | 81 | 1039.7 |
| 20260507081054 | 11 | 258 | 0.0 | 0.0 | 0.00 | 0.38 | 0.00 | 80 | 1039.7 |
| 20260507080542 | 11 | 258 | 0.0 | 3.2 | 0.00 | 0.38 | 0.00 | 80 | 1039.5 |
| 20260507080030 | 11 | 21 | 0.0 | 3.2 | 0.00 | 0.38 | 0.00 | 80 | 1039.5 |
| 20260507075745 | 11 | 294 | 0.0 | 3.2 | 0.00 | 0.38 | 0.00 | 81 | 1039.5 |
| 20260507075024 | 11 | 55 | 0.0 | 4.8 | 0.00 | 0.38 | 0.00 | 81 | 1039.3 |
| 20260507074746 | 11 | 311 | 1.6 | 8.0 | 0.00 | 0.38 | 0.00 | 81 | 1039.3 |
| 20260507074024 | 11 | 55 | 0.0 | 8.0 | 0.00 | 0.38 | 0.00 | 82 | 1039.3 |
| 20260507073524 | 11 | 129 | 0.0 | 1.6 | 0.00 | 0.38 | 0.00 | 85 | 1039.2 |
| 20260507073023 | 11 | 291 | 0.0 | 1.6 | 0.00 | 0.38 | 0.00 | 85 | 1039.2 |
| 20260507072524 | 11 | 92 | 0.0 | 1.6 | 0.00 | 0.38 | 0.00 | 84 | 1039.2 |
| 20260507072023 | 11 | 246 | 0.0 | 1.6 | 0.00 | 0.38 | 0.00 | 84 | 1039.1 |
| 20260507071739 | 11 | 246 | 0.0 | 3.2 | 0.00 | 0.38 | 0.00 | 84 | 1039.1 |
| 20260507071015 | 11 | 230 | 0.0 | 3.2 | 0.00 | 0.38 | 0.00 | 85 | 1039.1 |
| 20260507070740 | 11 | 265 | 0.0 | 1.6 | 0.00 | 0.38 | 0.00 | 84 | 1039.4 |
| 20260507070004 | 11 | 270 | 0.0 | 1.6 | 0.00 | 0.38 | 0.00 | 85 | 1039.4 |
| 20260507065945 | 11 | 163 | 0.0 | 1.6 | 0.00 | 0.38 | 0.00 | 85 | 1039.4 |
| 20260507064956 | 11 | 53 | 0.0 | 1.6 | 0.00 | 0.38 | 0.00 | 85 | 1039.7 |
| 20260507064939 | 11 | 194 | 0.0 | 1.6 | 0.00 | 0.38 | 0.00 | 84 | 1039.7 |
| 20260507063943 | 11 | 267 | 0.0 | 1.6 | 0.00 | 0.38 | 0.00 | 85 | 1039.7 |
| 20260507063921 | 11 | 33 | 0.0 | 1.6 | 0.00 | 0.38 | 0.00 | 84 | 1039.8 |
| 20260507062931 | 12 | 259 | 0.0 | 1.6 | 0.00 | 0.38 | 0.00 | 85 | 1039.8 |
| 20260507062646 | 12 | 302 | 0.0 | 1.6 | 0.00 | 0.38 | 0.00 | 84 | 1039.8 |
| 20260507061915 | 12 | 273 | 0.0 | 0.0 | 0.00 | 0.38 | 0.00 | 84 | 1040.1 |
| 20260507061411 | 12 | 273 | 0.0 | 1.6 | 0.00 | 0.38 | 0.00 | 83 | 1040.1 |
| 20260507061344 | 12 | 273 | 0.0 | 1.6 | 0.00 | 0.38 | 0.00 | 83 | 1040.1 |
| 20260507060358 | 12 | 278 | 0.0 | 1.6 | 0.00 | 0.38 | 0.00 | 83 | 1040.2 |
| 20260507055851 | 12 | 282 | 0.0 | 3.2 | 0.00 | 0.38 | 0.00 | 82 | 1040.2 |
| 20260507055342 | 12 | 281 | 0.0 | 3.2 | 0.00 | 0.38 | 0.00 | 83 | 1040.2 |
| 20260507054839 | 12 | 117 | 0.0 | 3.2 | 0.00 | 0.38 | 0.00 | 82 | 1040.1 |
| 20260507054335 | 12 | 88 | 0.0 | 3.2 | 0.00 | 0.38 | 0.00 | 82 | 1040.1 |
| 20260507054054 | 12 | 250 | 0.0 | 1.6 | 0.00 | 0.38 | 0.00 | 82 | 1040.1 |
| 20260507053322 | 12 | 89 | 0.0 | 1.6 | 0.00 | 0.38 | 0.00 | 82 | 1039.7 |
| 20260507052815 | 12 | 89 | 0.0 | 1.6 | 0.00 | 0.38 | 0.00 | 82 | 1039.7 |
| 20260507052311 | 12 | 315 | 0.0 | 1.6 | 0.00 | 0.38 | 0.00 | 83 | 1039.7 |
| 20260507051759 | 12 | 293 | 0.0 | 11.3 | 0.00 | 0.38 | 0.00 | 83 | 1039.5 |
| 20260507051259 | 12 | 328 | 0.0 | 11.3 | 0.00 | 0.38 | 0.00 | 82 | 1039.5 |
| 20260507050751 | 12 | 119 | 0.0 | 1.6 | 0.00 | 0.38 | 0.00 | 83 | 1039.5 |
| 20260507050512 | 12 | 119 | 0.0 | 1.6 | 0.00 | 0.38 | 0.00 | 83 | 1039.5 |
| 20260507045739 | 12 | 254 | 0.0 | 1.6 | 0.00 | 0.38 | 0.00 | 83 | 1039.5 |
| 20260507045234 | 12 | 177 | 0.0 | 3.2 | 0.00 | 0.38 | 0.00 | 83 | 1039.5 |
| 20260507045207 | 12 | 281 | 0.0 | 3.2 | 0.00 | 0.38 | 0.00 | 83 | 1039.5 |
| 20260507044223 | 12 | 175 | 0.0 | 3.2 | 0.00 | 0.38 | 0.00 | 83 | 1039.5 |
| 20260507043715 | 12 | 246 | 1.6 | 8.0 | 0.00 | 0.38 | 0.00 | 84 | 1039.5 |
| 20260507043205 | 12 | 59 | 1.6 | 8.0 | 0.00 | 0.38 | 0.00 | 83 | 1039.3 |
| 20260507042703 | 12 | 332 | 1.6 | 8.0 | 0.00 | 0.38 | 0.00 | 83 | 1039.3 |
| 20260507042157 | 12 | 150 | 1.6 | 8.0 | 0.00 | 0.38 | 0.00 | 84 | 1039.3 |
| 20260507041651 | 12 | 350 | 1.6 | 8.0 | 0.00 | 0.38 | 0.00 | 84 | 1039.5 |
| 20260507041145 | 12 | 248 | 0.0 | 3.2 | 0.00 | 0.38 | 0.00 | 85 | 1039.5 |
| 20260507040634 | 13 | 118 | 0.0 | 3.2 | 0.00 | 0.38 | 0.00 | 85 | 1039.5 |
| 20260507040133 | 13 | 230 | 1.6 | 11.3 | 0.00 | 0.38 | 0.00 | 85 | 1040.0 |
| 20260507035623 | 13 | 42 | 1.6 | 11.3 | 0.00 | 0.38 | 0.38 | 86 | 1040.0 |
| 20260507035121 | 13 | 263 | 1.6 | 6.4 | 0.00 | 0.38 | 0.38 | 86 | 1039.1 |
| 20260507034615 | 13 | 224 | 1.6 | 6.4 | 0.00 | 0.38 | 0.38 | 86 | 1039.1 |
| 20260507034109 | 13 | 72 | 0.0 | 6.4 | 0.00 | 0.38 | 0.38 | 86 | 1039.1 |
| 20260507033603 | 13 | 217 | 0.0 | 3.2 | 0.00 | 0.38 | 0.38 | 86 | 1039.4 |
| 20260507033053 | 13 | 100 | 0.0 | 3.2 | 0.00 | 0.38 | 0.38 | 86 | 1039.4 |
| 20260507032551 | 13 | 98 | 0.0 | 4.8 | 0.00 | 0.38 | 0.38 | 85 | 1039.4 |
| 20260507032045 | 13 | 221 | 1.6 | 8.0 | 0.00 | 0.38 | 0.38 | 85 | 1039.7 |
| 20260507031540 | 13 | 219 | 1.6 | 8.0 | 0.00 | 0.38 | 0.38 | 85 | 1039.7 |
| 20260507031254 | 13 | 189 | 1.6 | 8.0 | 0.00 | 0.38 | 0.38 | 86 | 1039.7 |
| 20260507030744 | 13 | 310 | 1.6 | 11.3 | 0.00 | 0.38 | 0.38 | 85 | 1039.7 |
| 20260507030233 | 13 | 323 | 1.6 | 11.3 | 0.00 | 0.38 | 0.38 | 86 | 1039.7 |
| 20260507025737 | 13 | 38 | 1.6 | 4.8 | 0.00 | 0.38 | 0.38 | 84 | 1039.7 |
| 20260507025228 | 13 | 128 | 1.6 | 6.4 | 0.00 | 0.38 | 0.38 | 84 | 1039.2 |
| 20260507024726 | 14 | 11 | 1.6 | 6.4 | 0.00 | 0.38 | 0.38 | 84 | 1039.2 |
| 20260507023954 | 14 | 113 | 1.6 | 8.0 | 0.00 | 0.38 | 0.38 | 84 | 1039.2 |
| 20260507023447 | 14 | 157 | 1.6 | 8.0 | 0.00 | 0.38 | 0.38 | 84 | 1039.1 |
| 20260507022942 | 14 | 91 | 1.6 | 8.0 | 0.00 | 0.38 | 0.38 | 84 | 1039.1 |
| 20260507022430 | 14 | 206 | 1.6 | 8.0 | 0.00 | 0.38 | 0.38 | 84 | 1039.1 |
| 20260507021929 | 14 | 331 | 1.6 | 6.4 | 0.00 | 0.38 | 0.38 | 84 | 1038.9 |
| 20260507021419 | 14 | 99 | 1.6 | 6.4 | 0.00 | 0.38 | 0.38 | 85 | 1038.9 |
| 20260507021145 | 14 | 196 | 0.0 | 0.0 | 0.00 | 0.38 | 0.38 | 86 | 1038.9 |
| 20260507020411 | 14 | 196 | 0.0 | 0.0 | 0.00 | 0.38 | 0.38 | 86 | 1038.8 |
| 20260507015905 | 14 | 197 | 0.0 | 0.0 | 0.00 | 0.38 | 0.38 | 84 | 1038.8 |
| 20260507015359 | 14 | 44 | 0.0 | 0.0 | 0.00 | 0.38 | 0.38 | 85 | 1038.8 |
| 20260507014853 | 15 | 223 | 0.0 | 3.2 | 0.00 | 0.38 | 0.38 | 83 | 1038.6 |
| 20260507014347 | 15 | 222 | 1.6 | 14.5 | 0.00 | 0.38 | 0.38 | 84 | 1038.6 |
| 20260507013837 | 15 | 79 | 1.6 | 14.5 | 0.00 | 0.38 | 0.38 | 84 | 1038.6 |
| 20260507013335 | 15 | 125 | 3.2 | 17.7 | 0.00 | 0.38 | 0.38 | 83 | 1038.6 |
| 20260507012828 | 15 | 279 | 3.2 | 17.7 | 0.00 | 0.38 | 0.38 | 83 | 1038.6 |
| 20260507012323 | 15 | 301 | 3.2 | 17.7 | 0.00 | 0.38 | 0.38 | 84 | 1038.6 |
| 20260507011817 | 15 | 98 | 1.6 | 12.9 | 0.00 | 0.38 | 0.38 | 85 | 1038.6 |
| 20260507011307 | 15 | 138 | 0.0 | 9.7 | 0.00 | 0.38 | 0.38 | 85 | 1038.6 |
| 20260507010805 | 15 | 284 | 1.6 | 8.0 | 0.00 | 0.38 | 0.38 | 85 | 1038.6 |
| 20260507010305 | 15 | 13 | 1.6 | 9.7 | 0.00 | 0.38 | 0.38 | 83 | 1038.1 |
| 20260507005805 | 15 | 56 | 1.6 | 9.7 | 0.00 | 0.38 | 0.38 | 83 | 1038.1 |
| 20260507005309 | 15 | 200 | 0.0 | 6.4 | 0.00 | 0.38 | 0.38 | 83 | 1038.1 |
| 20260507005020 | 15 | 277 | 1.6 | 9.7 | 0.00 | 0.38 | 0.38 | 83 | 1038.6 |
| 20260507004301 | 15 | 311 | 3.2 | 9.7 | 0.00 | 0.38 | 0.38 | 83 | 1038.6 |
| 20260507003801 | 15 | 290 | 3.2 | 14.5 | 0.00 | 0.38 | 0.38 | 83 | 1038.6 |
| 20260507003302 | 15 | 246 | 1.6 | 14.5 | 0.00 | 0.38 | 0.38 | 83 | 1038.3 |
| 20260507002759 | 15 | 212 | 1.6 | 4.8 | 0.00 | 0.38 | 0.38 | 84 | 1038.3 |
| 20260507002258 | 16 | 261 | 1.6 | 4.8 | 0.00 | 0.38 | 0.38 | 84 | 1038.3 |
| 20260507001759 | 16 | 136 | 1.6 | 4.8 | 0.00 | 0.38 | 0.38 | 84 | 1038.3 |
| 20260507001256 | 16 | 257 | 3.2 | 12.9 | 0.00 | 0.38 | 0.38 | 84 | 1038.3 |
| 20260507000755 | 16 | 107 | 3.2 | 12.9 | 0.00 | 0.38 | 0.38 | 84 | 1038.3 |
| 20260507000254 | 16 | 69 | 1.6 | 4.8 | 0.00 | 0.38 | 0.38 | 85 | 1037.9 |
| 20260506235757 | 16 | 293 | 1.6 | 4.8 | 0.00 | 0.38 | 0.38 | 85 | 1037.9 |
| 20260506235258 | 16 | 49 | 1.6 | 8.0 | 0.00 | 0.38 | 0.38 | 84 | 1037.9 |
| 20260506234752 | 16 | 244 | 1.6 | 11.3 | 0.00 | 0.38 | 0.38 | 85 | 1037.5 |
| 20260506234241 | 16 | 55 | 1.6 | 11.3 | 0.00 | 0.38 | 0.38 | 85 | 1037.5 |
| 20260506233959 | 16 | 237 | 3.2 | 11.3 | 0.00 | 0.38 | 0.38 | 85 | 1037.5 |
| 20260506233238 | 16 | 20 | 3.2 | 11.3 | 0.00 | 0.38 | 0.38 | 84 | 1037.5 |
| 20260506232739 | 16 | 176 | 3.2 | 11.3 | 0.00 | 0.38 | 0.38 | 84 | 1037.5 |
| 20260506232502 | 17 | 216 | 3.2 | 19.3 | 0.00 | 0.38 | 0.38 | 84 | 1037.5 |
| 20260506232010 | 17 | 251 | 4.8 | 19.3 | 0.00 | 0.38 | 0.38 | 85 | 1037.0 |
| 20260506231239 | 17 | 238 | 3.2 | 11.3 | 0.00 | 0.38 | 0.38 | 84 | 1037.0 |
| 20260506230742 | 17 | 36 | 1.6 | 11.3 | 0.00 | 0.38 | 0.38 | 85 | 1037.0 |
| 20260506230242 | 17 | 126 | 1.6 | 9.7 | 0.00 | 0.38 | 0.38 | 86 | 1036.6 |
| 20260506225736 | 17 | 288 | 1.6 | 9.7 | 0.00 | 0.38 | 0.38 | 85 | 1036.6 |
| 20260506225225 | 17 | 117 | 3.2 | 12.9 | 0.00 | 0.38 | 0.38 | 85 | 1036.6 |
| 20260506224938 | 17 | 12 | 4.8 | 14.5 | 0.00 | 0.38 | 0.38 | 84 | 1036.7 |
| 20260506224422 | 17 | 221 | 3.2 | 14.5 | 0.00 | 0.38 | 0.38 | 85 | 1036.7 |
| 20260506223914 | 18 | 267 | 3.2 | 14.5 | 0.00 | 0.38 | 0.38 | 85 | 1036.7 |
| 20260506223135 | 18 | 243 | 1.6 | 6.4 | 0.00 | 0.38 | 0.38 | 86 | 1036.9 |
| 20260506222626 | 18 | 296 | 3.2 | 9.7 | 0.00 | 0.38 | 0.38 | 86 | 1036.9 |
| 20260506222114 | 18 | 272 | 3.2 | 9.7 | 0.00 | 0.38 | 0.38 | 85 | 1036.7 |
| 20260506221609 | 18 | 263 | 3.2 | 9.7 | 0.00 | 0.38 | 0.38 | 85 | 1036.7 |
| 20260506221057 | 18 | 212 | 3.2 | 9.7 | 0.00 | 0.38 | 0.38 | 85 | 1036.7 |
| 20260506220819 | 18 | 283 | 1.6 | 8.0 | 0.00 | 0.38 | 0.38 | 85 | 1036.5 |
| 20260506220042 | 18 | 296 | 3.2 | 8.0 | 0.00 | 0.38 | 0.38 | 85 | 1036.5 |
| 20260506215544 | 18 | 244 | 3.2 | 8.0 | 0.00 | 0.38 | 0.38 | 85 | 1036.5 |
| 20260506215038 | 19 | 138 | 1.6 | 4.8 | 0.00 | 0.38 | 0.38 | 85 | 1036.1 |
| 20260506214532 | 19 | 19 | 1.6 | 6.4 | 0.00 | 0.38 | 0.38 | 85 | 1036.1 |
| 20260506214244 | 19 | 292 | 3.2 | 12.9 | 0.00 | 0.38 | 0.38 | 85 | 1036.1 |
| 20260506213520 | 19 | 244 | 3.2 | 12.9 | 0.00 | 0.38 | 0.38 | 85 | 1036.1 |
| 20260506213013 | 19 | 238 | 3.2 | 12.9 | 0.00 | 0.38 | 0.38 | 85 | 1036.1 |
| 20260506212503 | 20 | 55 | 3.2 | 12.9 | 0.00 | 0.38 | 0.38 | 84 | 1036.1 |
| 20260506211959 | 20 | 84 | 3.2 | 9.7 | 0.00 | 0.38 | 0.38 | 84 | 1036.0 |
| 20260506211449 | 20 | 234 | 1.6 | 6.4 | 0.00 | 0.38 | 0.38 | 81 | 1036.0 |
| 20260506210948 | 20 | 153 | 1.6 | 6.4 | 0.00 | 0.38 | 0.38 | 81 | 1036.0 |
| 20260506210442 | 20 | 232 | 0.0 | 4.8 | 0.00 | 0.38 | 0.38 | 82 | 1035.5 |
| 20260506205936 | 21 | 249 | 1.6 | 6.4 | 0.00 | 0.38 | 0.38 | 81 | 1035.5 |
| 20260506205430 | 21 | 292 | 0.0 | 6.4 | 0.00 | 0.38 | 0.38 | 81 | 1035.5 |
| 20260506204924 | 21 | 270 | 1.6 | 3.2 | 0.00 | 0.38 | 0.38 | 79 | 1035.4 |
| 20260506204418 | 21 | 103 | 1.6 | 6.4 | 0.00 | 0.38 | 0.38 | 80 | 1035.4 |
| 20260506204126 | 21 | 258 | 1.6 | 6.4 | 0.00 | 0.38 | 0.38 | 78 | 1035.4 |
| 20260506203623 | 21 | 221 | 1.6 | 3.2 | 0.00 | 0.38 | 0.38 | 79 | 1035.4 |
| 20260506202902 | 21 | 245 | 1.6 | 6.4 | 0.00 | 0.38 | 0.38 | 80 | 1035.4 |
| 20260506202353 | 21 | 259 | 1.6 | 6.4 | 0.00 | 0.38 | 0.38 | 82 | 1035.4 |
| 20260506201848 | 21 | 196 | 0.0 | 1.6 | 0.00 | 0.38 | 0.38 | 83 | 1035.4 |
| 20260506201341 | 21 | 292 | 0.0 | 1.6 | 0.00 | 0.38 | 0.38 | 84 | 1035.4 |
| 20260506200836 | 21 | 236 | 0.0 | 0.0 | 0.00 | 0.38 | 0.38 | 82 | 1035.4 |
| 20260506200332 | 21 | 237 | 0.0 | 0.0 | 0.00 | 0.38 | 0.38 | 83 | 1035.4 |
| 20260506195830 | 21 | 264 | 0.0 | 0.0 | 0.00 | 0.38 | 0.38 | 83 | 1035.4 |
| 20260506195330 | 20 | 276 | 0.0 | 0.0 | 0.00 | 0.38 | 0.38 | 84 | 1035.4 |
| 20260506194828 | 20 | 250 | 0.0 | 0.0 | 0.00 | 0.38 | 0.38 | 86 | 1035.4 |
| 20260506194326 | 20 | 250 | 0.0 | 0.0 | 0.00 | 0.38 | 0.38 | 86 | 1035.4 |
| 20260506194305 | 20 | 186 | 0.0 | 0.0 | 0.00 | 0.38 | 0.38 | 87 | 1035.4 |
| 20260506193325 | 19 | 257 | 0.0 | 0.0 | 0.00 | 0.38 | 0.38 | 86 | 1035.5 |
| 20260506192826 | 19 | 227 | 0.0 | 0.0 | 0.00 | 0.38 | 0.38 | 86 | 1035.5 |
| 20260506192557 | 20 | 254 | 0.0 | 0.0 | 0.00 | 0.38 | 0.38 | 87 | 1035.5 |
| 20260506191829 | 20 | 235 | 0.0 | 0.0 | 0.00 | 0.38 | 0.38 | 86 | 1035.6 |
| 20260506191323 | 20 | 228 | 0.0 | 0.0 | 0.00 | 0.38 | 0.38 | 86 | 1035.6 |
| 20260506190812 | 20 | 222 | 0.0 | 0.0 | 0.00 | 0.38 | 0.38 | 86 | 1035.6 |
| 20260506190533 | 20 | 222 | 0.0 | 1.6 | 0.00 | 0.38 | 0.38 | 84 | 1035.5 |
| 20260506190249 | 20 | 224 | 1.6 | 4.8 | 0.00 | 0.38 | 0.38 | 85 | 1035.5 |